Valdosta, GA

1:44 PM EDT on July 24, 2016 (GMT -0400)
Valdosta Regional

Weather History for KVLD - July, 2013

Change the Weather History Date:

Monday, July 8, 2013

  Actual Average Record
Temperature  
Mean Temperature 85 °F 81 °F  
Max Temperature 95 °F 92 °F 100 °F (1998)
Min Temperature 75 °F 71 °F 66 °F (2006)
Cooling Degree Days 20 16  
Month to date cooling degree days 141 128  
Year to date cooling degree days 1256 972  
Since 1 June cooling degree days 694 560  
Growing Degree Days 34 (Base 50)    
Moisture  
Dew Point 73 °F    
Average Humidity 68    
Maximum Humidity 87    
Minimum Humidity 49    
Precipitation  
Precipitation 0.04 in 0.20 in 0.60 in (1950)
Month to date precipitation 3.21 1.56  
Year to date precipitation 21.54 26.62  
Sea Level Pressure  
Sea Level Pressure 30.17 in    
Wind  
Wind Speed 2 mph (East)    
Max Wind Speed 17 mph    
Max Gust Speed 22 mph    
Visibility 10 miles    
Events Rain    
T = Trace of Precipitation, MM = Missing Value Source: NWS Daily Summary

Daily Weather History Graph

Daily Weather History Graph

Search for Another Location

Airport or City:

Trip Planner

Search our weather history database for the weather conditions in past years. The results will help you decide how hot, cold, wet, or windy it might be!

Date:

Astronomy

Jul. 08, 2013 Rise Set
Actual Time 6:36 AM EDT 8:39 PM EDT
Civil Twilight 6:09 AM EDT 9:06 PM EDT
Nautical Twilight 5:36 AM EDT 9:40 PM EDT
Astronomical Twilight 5:00 AM EDT 10:15 PM EDT
Moon 6:59 AM EDT (7/8) 8:48 PM EDT (7/8)
Length of Visible Light 14h 57m
Length of Day
14h 02m
New Moon, 0% of the Moon is Illuminated
Jul 8
New Moon
Jul 15
First Quarter
Jul 22
Full
Jul 29
Last Quarter
Aug 6
New

Hourly Weather History & Observations

Time (EDT) Temp. Heat Index Dew Point Humidity Pressure Visibility Wind Dir Wind Speed Gust Speed Precip Events Conditions
12:53 AM 80.1 °F 84.5 °F 73.9 °F 81% 30.17 in 10.0 mi Calm Calm - N/A   Partly Cloudy
1:53 AM 78.1 °F - 73.0 °F 84% 30.17 in 10.0 mi Calm Calm - N/A   Mostly Cloudy
2:53 AM 78.1 °F - 73.0 °F 84% 30.16 in 10.0 mi Calm Calm - N/A   Mostly Cloudy
3:53 AM 77.0 °F - 72.0 °F 84% 30.17 in 7.0 mi Calm Calm - N/A   Clear
4:53 AM 78.1 °F - 73.0 °F 84% 30.17 in 7.0 mi Calm Calm - N/A   Mostly Cloudy
5:53 AM 77.0 °F - 72.0 °F 84% 30.17 in 8.0 mi Calm Calm - N/A   Clear
6:53 AM 75.9 °F - 71.1 °F 85% 30.18 in 6.0 mi Calm Calm - N/A   Haze
7:53 AM 79.0 °F - 73.9 °F 84% 30.19 in 10.0 mi Calm Calm - N/A   Scattered Clouds
8:53 AM 82.0 °F 87.4 °F 73.0 °F 74% 30.19 in 10.0 mi ESE 3.5 mph - N/A   Scattered Clouds
9:53 AM 87.1 °F 94.5 °F 73.0 °F 63% 30.20 in 10.0 mi East 3.5 mph - N/A   Scattered Clouds
10:53 AM 89.1 °F 98.0 °F 73.9 °F 61% 30.21 in 10.0 mi Variable 4.6 mph - N/A   Clear
11:53 AM 90.0 °F 99.0 °F 73.9 °F 59% 30.21 in 10.0 mi SSE 3.5 mph - N/A   Partly Cloudy
12:53 PM 91.0 °F 98.2 °F 72.0 °F 53% 30.19 in 10.0 mi Variable 4.6 mph - N/A   Scattered Clouds
1:53 PM 93.0 °F 101.9 °F 73.0 °F 52% 30.18 in 10.0 mi Calm Calm - N/A   Partly Cloudy
2:53 PM 93.9 °F 102.1 °F 72.0 °F 49% 30.15 in 10.0 mi Variable 3.5 mph - N/A   Mostly Cloudy
3:53 PM 89.1 °F 97.0 °F 73.0 °F 59% 30.15 in 10.0 mi NNE 4.6 mph - 0.00 in Rain Light Rain
4:53 PM 89.1 °F 100.2 °F 75.9 °F 65% 30.13 in 10.0 mi East 4.6 mph - 0.00 in   Mostly Cloudy
5:53 PM 86.0 °F 99.3 °F 79.0 °F 79% 30.13 in 10.0 mi Calm Calm - 0.04 in   Mostly Cloudy
6:53 PM 84.9 °F 94.1 °F 75.9 °F 74% 30.14 in 10.0 mi Calm Calm - N/A   Mostly Cloudy
7:53 PM 82.0 °F 87.9 °F 73.9 °F 76% 30.16 in 10.0 mi Variable 3.5 mph - N/A   Mostly Cloudy
8:53 PM 79.0 °F - 70.0 °F 74% 30.17 in 10.0 mi Variable 3.5 mph - N/A   Partly Cloudy
9:53 PM 78.1 °F - 72.0 °F 81% 30.17 in 10.0 mi Calm Calm - N/A   Mostly Cloudy
10:53 PM 77.0 °F - 71.1 °F 82% 30.19 in 10.0 mi Calm Calm - N/A   Clear
11:53 PM 75.9 °F - 71.1 °F 85% 30.20 in 10.0 mi Calm Calm - N/A   Clear